TimeCDT,TemperatureF,Dew PointF,Humidity,Sea Level PressureIn,VisibilityMPH,Wind Direction,Wind SpeedMPH,Gust SpeedMPH,PrecipitationIn,Events,Conditions,WindDirDegrees,DateUTC
12:15 AM,63.7,43.9,48,29.92,10.0,NNW,13.8,23.0,N/A,,Light Drizzle,340,2013-05-16 05:15:00
12:35 AM,63.0,43.9,50,29.96,10.0,North,8.1,-,N/A,,Mostly Cloudy,10,2013-05-16 05:35:00
12:55 AM,63.7,43.3,48,29.96,10.0,West,3.5,-,N/A,,Overcast,280,2013-05-16 05:55:00
1:15 AM,61.7,44.2,53,29.94,10.0,NNE,5.8,-,N/A,,Overcast,20,2013-05-16 06:15:00
1:35 AM,61.2,44.6,54,29.93,10.0,NNW,8.1,-,N/A,,Mostly Cloudy,330,2013-05-16 06:35:00
1:55 AM,60.1,44.6,57,29.94,10.0,WNW,5.8,-,N/A,,Mostly Cloudy,300,2013-05-16 06:55:00
2:15 AM,60.3,44.8,57,29.94,10.0,North,8.1,-,N/A,,Scattered Clouds,360,2013-05-16 07:15:00
2:35 AM,60.8,44.1,54,29.94,10.0,North,8.1,-,N/A,,Mostly Cloudy,10,2013-05-16 07:35:00
2:55 AM,59.4,44.6,58,29.93,10.0,North,6.9,-,N/A,,Scattered Clouds,360,2013-05-16 07:55:00
3:15 AM,58.1,44.2,60,29.92,10.0,North,5.8,-,N/A,,Scattered Clouds,10,2013-05-16 08:15:00
3:35 AM,58.1,42.6,56,29.92,10.0,North,4.6,-,N/A,,Mostly Cloudy,360,2013-05-16 08:35:00
3:55 AM,58.1,42.6,56,29.92,10.0,Calm,Calm,-,N/A,,Scattered Clouds,0,2013-05-16 08:55:00
4:15 AM,57.2,43.9,61,29.91,10.0,NW,3.5,-,N/A,,Light Drizzle,310,2013-05-16 09:15:00
4:35 AM,56.7,44.1,63,29.91,10.0,Calm,Calm,-,N/A,,Scattered Clouds,0,2013-05-16 09:35:00
4:55 AM,55.4,45.0,68,29.91,10.0,Calm,Calm,-,N/A,,Mostly Cloudy,0,2013-05-16 09:55:00
5:15 AM,54.5,45.7,72,29.91,10.0,Calm,Calm,-,N/A,,Overcast,0,2013-05-16 10:15:00
5:35 AM,56.5,43.7,62,29.91,10.0,NNW,4.6,-,N/A,,Overcast,330,2013-05-16 10:35:00
5:55 AM,56.7,44.6,64,29.90,10.0,NW,4.6,-,N/A,,Overcast,310,2013-05-16 10:55:00
6:15 AM,55.8,46.4,71,29.90,10.0,WNW,5.8,-,N/A,,Overcast,300,2013-05-16 11:15:00
6:35 AM,55.2,45.7,70,29.89,10.0,NNW,4.6,-,N/A,,Mostly Cloudy,330,2013-05-16 11:35:00
6:55 AM,53.8,45.5,74,29.89,10.0,Calm,Calm,-,N/A,,Scattered Clouds,0,2013-05-16 11:55:00
7:15 AM,52.3,45.1,76,29.87,10.0,East,4.6,-,N/A,,Clear,80,2013-05-16 12:15:00
7:35 AM,52.5,44.1,73,29.88,10.0,Calm,Calm,-,N/A,,Scattered Clouds,0,2013-05-16 12:35:00
7:55 AM,52.0,43.7,73,29.87,10.0,East,3.5,-,N/A,,Scattered Clouds,100,2013-05-16 12:55:00
8:15 AM,56.3,44.6,65,29.89,10.0,SSW,4.6,-,N/A,,Mostly Cloudy,200,2013-05-16 13:15:00
8:35 AM,55.6,45.3,68,29.87,10.0,SW,3.5,-,N/A,,Scattered Clouds,220,2013-05-16 13:35:00
8:55 AM,60.8,42.6,51,29.88,10.0,SSW,5.8,-,N/A,,Clear,210,2013-05-16 13:55:00
9:15 AM,63.1,43.0,48,29.88,10.0,South,3.5,-,N/A,,Clear,180,2013-05-16 14:15:00
9:35 AM,65.5,44.8,47,29.89,10.0,South,4.6,-,N/A,,Clear,190,2013-05-16 14:35:00
9:55 AM,66.7,45.3,46,29.89,10.0,SSW,3.5,-,N/A,,Clear,210,2013-05-16 14:55:00
10:15 AM,68.9,45.3,43,29.89,10.0,SW,3.5,-,N/A,,Mostly Cloudy,220,2013-05-16 15:15:00
10:35 AM,68.0,46.2,46,29.89,10.0,SW,6.9,-,N/A,,Overcast,230,2013-05-16 15:35:00
10:55 AM,69.1,45.1,42,29.89,10.0,SW,9.2,-,N/A,,Overcast,230,2013-05-16 15:55:00
11:15 AM,68.9,47.1,46,29.89,10.0,SW,10.4,-,N/A,,Overcast,220,2013-05-16 16:15:00
11:35 AM,67.8,46.4,46,29.90,10.0,WSW,12.7,-,N/A,,Overcast,240,2013-05-16 16:35:00
11:55 AM,63.9,47.8,56,29.89,10.0,WSW,9.2,12.7,N/A,Rain,Light Rain,240,2013-05-16 16:55:00
12:15 PM,66.7,53.4,62,29.89,10.0,SW,10.4,-,N/A,,Overcast,220,2013-05-16 17:15:00
12:35 PM,69.1,48.6,48,29.89,10.0,SW,11.5,-,N/A,,Overcast,230,2013-05-16 17:35:00
12:55 PM,69.4,43.9,40,29.88,10.0,West,5.8,-,N/A,,Overcast,270,2013-05-16 17:55:00
1:15 PM,70.7,41.5,35,29.87,10.0,West,4.6,-,N/A,,Overcast,260,2013-05-16 18:15:00
1:35 PM,72.3,39.2,30,29.87,10.0,West,9.2,-,N/A,,Scattered Clouds,260,2013-05-16 18:35:00
2:15 PM,75.7,40.1,28,29.85,10.0,Calm,Calm,-,N/A,,Clear,0,2013-05-16 19:15:00
2:35 PM,75.9,39.0,26,29.83,10.0,North,4.6,-,N/A,,Clear,360,2013-05-16 19:35:00
2:55 PM,77.0,39.6,26,29.82,10.0,WNW,5.8,-,N/A,,Clear,290,2013-05-16 19:55:00
3:15 PM,77.9,39.0,25,29.83,10.0,SSW,4.6,-,N/A,,Clear,200,2013-05-16 20:15:00
3:35 PM,77.5,39.6,26,29.84,10.0,WSW,6.9,-,N/A,,Scattered Clouds,240,2013-05-16 20:35:00
3:55 PM,64.6,44.1,47,29.87,4.0,NW,38.0,58.7,N/A,Rain-Thunderstorm,Light Thunderstorms and Rain,310,2013-05-16 20:55:00
4:15 PM,60.8,47.7,62,29.87,10.0,NNW,18.4,27.6,N/A,Rain-Thunderstorm,Light Thunderstorms and Rain,330,2013-05-16 21:15:00
4:35 PM,64.8,44.2,47,29.88,7.0,WNW,11.5,32.2,N/A,Rain,Rain,300,2013-05-16 21:35:00
5:15 PM,62.2,47.1,58,29.82,10.0,SE,11.5,15.0,N/A,,Light Drizzle,130,2013-05-16 22:15:00
5:35 PM,63.0,46.9,56,29.83,10.0,Calm,Calm,-,N/A,,Mostly Cloudy,0,2013-05-16 22:35:00
5:55 PM,63.9,47.3,55,29.82,10.0,East,8.1,-,N/A,,Clear,90,2013-05-16 22:55:00
6:15 PM,66.2,49.1,54,29.81,10.0,ESE,8.1,-,N/A,,Clear,110,2013-05-16 23:15:00
6:35 PM,69.8,46.6,43,29.81,10.0,SE,9.2,-,N/A,,Clear,130,2013-05-16 23:35:00
6:55 PM,72.1,44.1,36,29.81,10.0,ESE,5.8,-,N/A,,Clear,120,2013-05-16 23:55:00
7:15 PM,72.7,43.0,34,29.81,10.0,SSE,3.5,-,N/A,,Clear,150,2013-05-17 00:15:00
7:35 PM,69.4,47.7,46,29.80,10.0,ESE,3.5,-,N/A,,Scattered Clouds,120,2013-05-17 00:35:00
7:55 PM,68.4,47.3,47,29.81,10.0,ENE,6.9,-,N/A,,Mostly Cloudy,60,2013-05-17 00:55:00
8:15 PM,67.5,50.5,55,29.81,10.0,Calm,Calm,-,N/A,,Overcast,0,2013-05-17 01:15:00
8:35 PM,66.6,49.5,54,29.85,10.0,West,3.5,-,N/A,,Overcast,270,2013-05-17 01:35:00
8:55 PM,65.3,44.6,47,29.90,7.0,North,4.6,9.2,0.02,Rain-Thunderstorm,Thunderstorms and Rain,360,2013-05-17 01:55:00
9:15 PM,61.0,51.1,70,29.91,10.0,WSW,10.4,-,0.05,Rain,Rain,240,2013-05-17 02:15:00
9:35 PM,65.1,45.9,50,29.90,10.0,West,9.2,19.6,0.09,Rain-Thunderstorm,Rain,260,2013-05-17 02:35:00
9:55 PM,59.4,51.4,75,29.87,10.0,ENE,6.9,-,0.10,Rain,Light Rain,60,2013-05-17 02:55:00
10:15 PM,60.3,50.0,69,29.86,10.0,ENE,9.2,-,N/A,,Light Drizzle,70,2013-05-17 03:15:00
10:35 PM,62.1,48.2,60,29.87,10.0,North,3.5,-,N/A,,Overcast,10,2013-05-17 03:35:00
10:55 PM,60.8,52.0,73,29.88,10.0,South,5.8,-,N/A,,Mostly Cloudy,180,2013-05-17 03:55:00
11:15 PM,59.2,51.1,74,29.88,10.0,SSE,5.8,-,N/A,,Mostly Cloudy,160,2013-05-17 04:15:00
11:35 PM,59.0,50.4,73,29.89,10.0,South,10.4,-,N/A,,Mostly Cloudy,180,2013-05-17 04:35:00
11:55 PM,57.9,50.5,76,29.88,10.0,South,8.1,-,N/A,,Scattered Clouds,180,2013-05-17 04:55:00